Durango, CO

8:53 AM MDT on July 20, 2017 (GMT -0600)
Durango-La Plata County

Weather History for KDRO - February, 2013

Change the Weather History Date:

Sunday, February 24, 2013

  Actual Average Record
Temperature  
Mean Temperature 20 °F 31 °F  
Max Temperature 32 °F 45 °F 65 °F (1986)
Min Temperature 7 °F 17 °F 0 °F (1974)
Degree Days  
Heating Degree Days 45 34  
Month to date heating degree days 941 890  
Since 1 July heating degree days 5178 5044  
Cooling Degree Days 0 0  
Month to date cooling degree days 0 0  
Year to date cooling degree days 0 0  
Moisture  
Dew Point 7 °F    
Average Humidity 54    
Maximum Humidity 91    
Minimum Humidity 16    
Precipitation  
Precipitation 0.00 in 0.04 in 0.51 in (1987)
Month to date precipitation 0.47 1.01  
Year to date precipitation 2.21 2.13  
Sea Level Pressure  
Sea Level Pressure 29.88 in    
Wind  
Wind Speed 5 mph (NNW)    
Max Wind Speed 17 mph    
Max Gust Speed 23 mph    
Visibility 10 miles    
Events      
T = Trace of Precipitation, MM = Missing Value Source: NWS Daily Summary

Daily Weather History Graph

Daily Weather History Graph

Search for Another Location

Airport or City:

Trip Planner

Search our weather history database for the weather conditions in past years. The results will help you decide how hot, cold, wet, or windy it might be!

Date:

Astronomy

Feb. 24, 2013 Rise Set
Actual Time 6:48 AM MST 6:00 PM MST
Civil Twilight 6:22 AM MST 6:26 PM MST
Nautical Twilight 5:51 AM MST 6:57 PM MST
Astronomical Twilight 5:21 AM MST 7:27 PM MST
Moon 5:14 PM MST (2/24) 5:46 AM MST (2/24)
Length of Visible Light 12h 04m
Length of Day
11h 12m
Waxing Gibbous, 99% of the Moon is Illuminated
Feb 24
Waxing Gibbous
Feb 25
Full
Mar 4
Last Quarter
Mar 11
New
Mar 19
First Quarter

Hourly Weather History & Observations

Time (MST) Temp. Windchill Dew Point Humidity Pressure Visibility Wind Dir Wind Speed Gust Speed Precip Events Conditions
12:53 AM 24.1 °F 11.5 °F 17.1 °F 75% 29.80 in 10.0 mi WSW 15.0 mph - N/A   Overcast
1:53 AM 21.9 °F 9.2 °F 16.0 °F 78% 29.81 in 10.0 mi WSW 13.8 mph - N/A   Mostly Cloudy
2:53 AM 19.9 °F 6.2 °F 12.9 °F 74% 29.82 in 10.0 mi WSW 15.0 mph - N/A   Clear
3:53 AM 16.0 °F 7.4 °F 9.0 °F 74% 29.83 in 10.0 mi SSW 5.8 mph - N/A   Clear
4:53 AM 14.0 °F 5.1 °F 10.0 °F 84% 29.83 in 10.0 mi North 5.8 mph - N/A   Clear
5:53 AM 9.0 °F 2.4 °F 6.1 °F 88% 29.86 in 10.0 mi NNE 3.5 mph - N/A   Clear
6:53 AM 8.1 °F -3.2 °F 5.0 °F 87% 29.88 in 10.0 mi North 6.9 mph - N/A   Clear
7:53 AM 8.1 °F - 5.0 °F 87% 29.90 in 10.0 mi Calm Calm - N/A   Clear
8:53 AM 15.1 °F 7.7 °F 9.0 °F 77% 29.89 in 10.0 mi NNE 4.6 mph - N/A   Clear
9:53 AM 19.0 °F 10.0 °F 10.0 °F 68% 29.87 in 10.0 mi East 6.9 mph - N/A   Clear
10:53 AM 21.9 °F 14.5 °F 10.0 °F 60% 29.86 in 10.0 mi East 5.8 mph - N/A   Clear
11:53 AM 25.0 °F - 8.1 °F 49% 29.83 in 10.0 mi Calm Calm - N/A   Clear
12:53 PM 27.0 °F - 9.0 °F 47% 29.82 in 10.0 mi Calm Calm - N/A   Partly Cloudy
1:53 PM 28.0 °F - 6.1 °F 39% 29.81 in 10.0 mi Calm Calm - N/A   Clear
2:53 PM 30.0 °F 21.7 °F -4.0 °F 23% 29.82 in 10.0 mi NNW 9.2 mph - N/A   Partly Cloudy
3:53 PM 30.9 °F - -11.0 °F 16% 29.85 in 10.0 mi Calm Calm - N/A   Clear
4:53 PM 30.9 °F 24.3 °F -0.0 °F 27% 29.87 in 10.0 mi WNW 6.9 mph - N/A   Clear
6:53 PM 26.1 °F 18.4 °F 12.9 °F 58% 29.96 in 10.0 mi NW 6.9 mph - N/A   Clear
7:53 PM 21.9 °F 13.4 °F 9.0 °F 58% 30.01 in 10.0 mi North 6.9 mph - N/A   Clear
8:53 PM 21.9 °F - 9.0 °F 58% 29.98 in 10.0 mi Calm Calm - N/A   Clear
9:53 PM 18.0 °F - 9.0 °F 68% 30.01 in 10.0 mi Calm Calm - N/A   Clear
10:53 PM 16.0 °F - 8.1 °F 71% 30.02 in 10.0 mi Calm Calm - N/A   Clear
11:53 PM 17.1 °F 11.7 °F 5.0 °F 59% 30.02 in 10.0 mi NNW 3.5 mph - N/A   Clear